This is the latest recevied weather packets stored in our database for station/object OE-11073. If no packets are shown the sender has not sent any weather packets the latest 10 day(s).
| Time | Temp. | Humidity | Pressure | Rain* | Wind** | Luminosity | Snow |
|---|---|---|---|---|---|---|---|
| 1787650510 | 16.11° C | 90% | - | 0.25 mm | - | 222 W/m² | - |
| 1787649910 | 16.11° C | 89% | - | 0.25 mm | - | 168 W/m² | - |
| 1787649083 | 15.56° C | 89% | - | 0.25 mm | - | 138 W/m² | - |
| 1787648710 | 15.56° C | 90% | - | 0.25 mm | - | 130 W/m² | - |
| 1787648110 | 15.56° C | 90% | - | 0.25 mm | - | 153 W/m² | - |
| 1787647282 | 15.56° C | 90% | - | 0.25 mm | - | 168 W/m² | - |
| 1787646910 | 15.56° C | 91% | - | 0.51 mm | - | 138 W/m² | - |
| 1787646310 | 15.56° C | 93% | - | 0.51 mm | - | 99 W/m² | - |
| 1787645482 | 15° C | 93% | - | 0.51 mm | - | 99 W/m² | - |
| 1787645110 | 15° C | 94% | - | 0.76 mm | - | 92 W/m² | - |
| 1787644510 | 15° C | 91% | - | 1.02 mm | - | 84 W/m² | - |
| 1787643683 | 15° C | 93% | - | 1.52 mm | - | 92 W/m² | - |
| 1787643310 | 14.44° C | 92% | - | 1.52 mm | - | 84 W/m² | - |
| 1787642710 | 14.44° C | 93% | - | 1.27 mm | - | 69 W/m² | - |
| 1787641883 | 14.44° C | 91% | - | 1.02 mm | - | 38 W/m² | - |
| 1787641509 | 14.44° C | 92% | - | 1.02 mm | - | 23 W/m² | - |
| 1787640909 | 14.44° C | 92% | - | 0.76 mm | - | 23 W/m² | - |
| 1787640083 | 14.44° C | 92% | - | 0.51 mm | - | 15 W/m² | - |
| 1787639709 | 14.44° C | 90% | - | 0 mm | - | 15 W/m² | - |
| 1787639110 | 14.44° C | 88% | - | 0 mm | - | 15 W/m² | - |
| 1787638282 | 14.44° C | 89% | - | 0 mm | - | 15 W/m² | - |
| 1787637910 | 14.44° C | 86% | - | 0 mm | - | 15 W/m² | - |
| 1787637310 | 13.89° C | 89% | - | 0 mm | - | 15 W/m² | - |
| 1787636482 | 13.89° C | 90% | - | 0 mm | - | 8 W/m² | - |
| 1787636109 | 13.89° C | 88% | - | 0 mm | - | 8 W/m² | - |
* Rain latest hour (hover to see other rain measurements)
** Current wind speed in m/s (hover to see current wind gust speed)